Regional Weather Roundup
Issued by NWS Charleston, SC

Current Version | Previous Version | Graphics & Text | Print | Product List | Glossary On
Versions: 1 2 3 4 5 6 7 8 9 10 11 12 13 14 15 16 17 18 19 20 21 22 23 24 25 26 27 28 29 30 31 32 33 34 35 36 37 38 39 40 41 42 43 44 45 46 47 48 49 50
000 ASUS42 KCHS 291328 RWRCHS REGIONAL WEATHER ROUNDUP NATIONAL WEATHER SERVICE CHARLESTON SC 900 AM EDT FRI JUL 29 2016 NOTE: "FAIR" INDICATES FEW OR NO CLOUDS BELOW 12,000 FEET WITH NO SIGNIFICANT WEATHER AND/OR OBSTRUCTIONS TO VISIBILITY. NOT ALL STATIONS ARE QUALITY CONTROLLED. USE DATA WITH CAUTION... ESPECIALLY DEWPOINT OBSERVATIONS. SCZ027-030-031-034>040-042>050-291400- ...SOUTHEAST SOUTH CAROLINA... CITY SKY/WX TMP DP RH WIND PRES REMARKS N CHARLESTON MOSUNNY 85 70 60 W8 29.99R WATERFRONT PRK N/A 83 72 69 VRB3 29.97R MOUNT PLEASANT FAIR 86 73 66 W9 29.99S HX 93 JOHNS ISLAND FAIR 86 73 66 W9 29.99F HX 93 PINOPOLIS N/A 81 73 78 W10 29.91R MONCKS CORNER FAIR 81 68 65 W7 29.98S SUMMERVILLE FAIR 82 72 69 W3 30.00S BEAUFORT MCAS MOSUNNY 86 70 58 W10 30.01R HX 90 BEAUFORT ARPT FAIR 86 70 58 W8 30.00F HX 90 HILTON HEAD IS SUNNY 84 72 65 W10 30.00S WALTERBORO SUNNY 86 70 58 W5 30.01R HX 90 ALLENDALE FAIR 82 72 69 VRB5 29.99F ...SOUTHERN MIDLANDS AND PEE DEE... CITY SKY/WX TMP DP RH WIND PRES REMARKS GEORGETOWN FAIR 82 73 74 W8 29.98S KINGSTREE FAIR 82 70 65 W8 29.96S ORANGEBURG SUNNY 84 71 65 W10G20 29.98S BARNWELL NOT AVBL AIKEN FAIR 82 70 65 W9 30.03S MANNING FAIR 82 70 65 SW6 29.97S COLUMBIA MOSUNNY 84 71 65 W12 29.96R SUMTER MOSUNNY 83 71 66 W13G22 29.94R FLORENCE SUNNY 84 71 65 W13 29.95R MYRTLE BEACH SUNNY 86 70 58 W10 29.97S HX 90 N MYRTLE BEACH SUNNY 86 73 65 W10 29.95R HX 93 $$ GAZ063-065-086>088-099>101-113>116-118-119-134>141-150-291400- ...SOUTHEAST GEORGIA... CITY SKY/WX TMP DP RH WIND PRES REMARKS SAVANNAH ARPT MOSUNNY 85 71 63 W10 30.02S HX 90 HUNTER AAF SUNNY 85 75 71 W8 29.99S HX 93 FORT STEWART SUNNY 83 72 69 W9 30.01R STATESBORO SUNNY 84 74 73 W7 30.02S HX 91 SYLVANIA NOT AVBL CLAXTON FAIR 85 74 70 SW6 30.03S HAZE HX 92 ...CSRA...CENTRAL AND FAR SOUTHEAST GEORGIA... CITY SKY/WX TMP DP RH WIND PRES REMARKS THOMSON NOT AVBL AUGUSTA-BUSH SUNNY 83 71 67 W10 29.99S AUGUSTA-DANIEL SUNNY 83 71 67 W6 30.01S SWAINSBORO FAIR 82 72 69 NW8 30.04S VIDALIA SUNNY 84 72 65 W3 30.04S EASTMAN FAIR 84 64 51 NW6 30.07S HAZLEHURST FAIR 85 76 72 CALM 30.05R HX 95 ALMA SUNNY 84 74 71 NW7 30.04S HX 91 WAYCROSS SUNNY 88 79 74 W7 30.05S HX 102 JESUP FAIR 86 77 74 NW7 30.03F HX 97 BAXLEY FAIR 86 77 74 NW7 30.04S HX 97 BRUNSWICK SUNNY 86 77 74 W5 30.04F HX 97 SAINT SIMONS SUNNY 85 74 69 W6 30.04R HX 92 $$ SCZ027-028-034-036>038-045-046-048>050-GAZ119-141-291400- ...LAKE AND SUPPLEMENTAL COASTAL OBSERVATIONS... STATION/POSITION TIME TEMP WIND PRES WAVE SWELL AIR SEA DIR/SP/G HT/PER HT/PER/DIR (UTC) (F) (DEG/KT/KT) (MB) (FT/S) (FT/S/D) WINYAH BAY 1200 82 260/ 7 1014.0S LAKE MURRAY 1200 80 270/ 13/ 17 1013.9R ACE BASIN NERRS 1200 81 250/ 1 1016.0S FORT PULASKI 1300 84 87 290/ 12/ 13 1016.6S SAPELO ISLAND 1300 84 300/ 9 1017.0S $$ ANZ835-935-AMZ111-154-330-350-352-354-370-450-454-472-291400- ...C-MAN AND BUOY OBSERVATIONS... STATION/POSITION TIME TEMP WIND PRES WAVE SWELL AIR SEA DIR/SP/G HT/PER HT/PER/DIR (UTC) (F) (DEG/KT/KT) (MB) (FT/S) (FT/S/D) BUOY 41004 1250 85 85 280/ 14/ 16 1015.1R 4/ 5 2/170/ 8 BUOY 41008 1250 85 86 270/ 14/ 17 1016.4R 3/ 4 FOLLY BEACH CMAN 1300 85 270/ 5/ 8 1015.8R CAPERS NEARSHORE 1308 85 84 290/ 12/ 16 1015.3R FRIPP NEARSHORE 1308 84 87 300/ 14/ 16 1015.5R STATION/POSITION TIME TEMP WIND PRES WAVE SWELL AIR SEA DIR/SP/G HT/PER HT/PER/DIR (UTC) (F) (DEG/KT/KT) (MB) (FT/S) (FT/S/D) 5E ST. MARYS GA 1301 85 N/A 2/ 5 FRYING PAN BUOY 1300 85 85 250/ 16/ 17 1014.3R BUOY 41025 1250 84 85 240/ 17/ 19 1012.5R 4/ 6 2/140/ 9 CAPE LOOKOUT NC 1300 86 250/ 14/ 18 1012.6S BUOY 41002 1250 84 84 230/ 8/ 10 1016.7R 3/ 6 3/240/ 6 BUOY 41010 1220 85 86 250/ 12/ 14 1017.4S ST AUGUSTINE FL 1300 83 83 280/ 8/ 10 1018.7R $$

USA.gov is the U.S. government's official web portal to all federal, state and local government web resources and services.